This is the latest recevied weather packets stored in our database for station/object KN6WGU. If no packets are shown the sender has not sent any weather packets the latest 10 day(s).
| Time | Temp. | Humidity | Pressure | Rain* | Wind** | Luminosity | Snow |
|---|---|---|---|---|---|---|---|
| 1787788430 | 23.89° C | 66% | 1005.9 hPa | 0 mm | - | 7 W/m² | - |
| 1787788124 | 24.44° C | 67% | 1005.6 hPa | 0 mm | - | 8 W/m² | - |
| 1787787819 | 24.44° C | 66% | 1005.7 hPa | 0 mm | - | 9 W/m² | - |
| 1787787518 | 24.44° C | 65% | 1005.7 hPa | 0 mm | - | 16 W/m² | - |
| 1787787213 | 24.44° C | 65% | 1005.5 hPa | 0 mm | - | 15 W/m² | - |
| 1787786912 | 25° C | 64% | 1005.5 hPa | 0 mm | - | 17 W/m² | - |
| 1787786608 | 25° C | 63% | 1005.5 hPa | 0 mm | - | 22 W/m² | - |
| 1787786302 | 25° C | 63% | 1005.6 hPa | 0 mm | - | 27 W/m² | - |
| 1787785999 | 25° C | 63% | 1005.7 hPa | 0 mm | - | 32 W/m² | - |
| 1787785699 | 25.56° C | 62% | 1005.5 hPa | 0 mm | - | 34 W/m² | - |
| 1787785394 | 25.56° C | 61% | 1005.6 hPa | 0 mm | - | 37 W/m² | - |
| 1787785092 | 25.56° C | 60% | 1005.7 hPa | 0 mm | - | 40 W/m² | - |
| 1787784789 | 26.11° C | 59% | 1005.7 hPa | 0 mm | - | 41 W/m² | - |
| 1787784487 | 26.11° C | 59% | 1005.8 hPa | 0 mm | - | 47 W/m² | - |
| 1787784182 | 26.11° C | 58% | 1006 hPa | 0 mm | - | 44 W/m² | - |
| 1787783877 | 26.11° C | 59% | 1006.2 hPa | 0 mm | - | 38 W/m² | - |
| 1787783573 | 26.11° C | 58% | 1006.1 hPa | 0 mm | - | 43 W/m² | - |
| 1787783268 | 26.11° C | 58% | 1006.1 hPa | 0 mm | - | 41 W/m² | - |
| 1787782963 | 26.67° C | 58% | 1006.1 hPa | 0 mm | - | 55 W/m² | - |
| 1787782662 | 26.67° C | 56% | 1006 hPa | 0 mm | - | 65 W/m² | - |
| 1787782358 | 26.67° C | 56% | 1005.9 hPa | 0 mm | - | 77 W/m² | - |
| 1787782053 | 26.67° C | 56% | 1006 hPa | 0 mm | - | 66 W/m² | - |
| 1787781749 | 26.67° C | 55% | 1006 hPa | 0 mm | - | 69 W/m² | - |
| 1787781446 | 26.67° C | 55% | 1006.1 hPa | 0 mm | - | 79 W/m² | - |
| 1787781145 | 26.67° C | 55% | 1006 hPa | 0 mm | - | 86 W/m² | - |
* Rain latest hour (hover to see other rain measurements)
** Current wind speed in m/s (hover to see current wind gust speed)